This is the latest recevied weather packets stored in our database for station/object AG1T-1. If no packets are shown the sender has not sent any weather packets the latest 10 day(s).
| Time | Temp. | Humidity | Pressure | Rain* | Wind** | Luminosity | Snow |
|---|---|---|---|---|---|---|---|
| 1777855203 | 23.89° C | 13% | 1014.1 hPa | 0 mm | - | 311 W/m² | - |
| 1777854603 | 23.89° C | 12% | 1014.2 hPa | 0 mm | - | 339 W/m² | - |
| 1777854003 | 24.44° C | 14% | 1014.4 hPa | 0 mm | - | 373 W/m² | - |
| 1777853403 | 24.44° C | 12% | 1014.3 hPa | 0 mm | - | 406 W/m² | - |
| 1777852803 | 23.89° C | 14% | 1014.4 hPa | 0 mm | - | 438 W/m² | - |
| 1777852203 | 23.89° C | 13% | 1014.4 hPa | 0 mm | - | 469 W/m² | - |
| 1777851603 | 24.44° C | 14% | 1014.5 hPa | 0 mm | - | 512 W/m² | - |
| 1777851003 | 24.44° C | 14% | 1014.6 hPa | 0 mm | - | 536 W/m² | - |
| 1777850403 | 24.44° C | 13% | 1014.6 hPa | 0 mm | - | 566 W/m² | - |
| 1777849803 | 25° C | 16% | 1014.7 hPa | 0 mm | - | 596 W/m² | - |
| 1777849203 | 24.44° C | 13% | 1014.8 hPa | 0 mm | - | 624 W/m² | - |
| 1777848603 | 25° C | 16% | 1015 hPa | 0 mm | - | 635 W/m² | - |
| 1777848003 | 24.44° C | 18% | 1015 hPa | 0 mm | - | 694 W/m² | - |
| 1777847403 | 25.56° C | 16% | 1015.1 hPa | 0 mm | - | 724 W/m² | - |
| 1777846803 | 24.44° C | 17% | 1015.3 hPa | 0 mm | - | 788 W/m² | - |
| 1777846203 | 24.44° C | 17% | 1015.5 hPa | 0 mm | - | 858 W/m² | - |
| 1777845603 | 24.44° C | 17% | 1015.7 hPa | 0 mm | - | 640 W/m² | - |
| 1777845003 | 23.89° C | 19% | 1015.8 hPa | 0 mm | - | 798 W/m² | - |
| 1777844403 | 24.44° C | 18% | 1015.9 hPa | 0 mm | - | 726 W/m² | - |
| 1777843803 | 24.44° C | 18% | 1016.1 hPa | 0 mm | - | 837 W/m² | - |
| 1777843203 | 24.44° C | 19% | 1016.2 hPa | 0 mm | - | 851 W/m² | - |
| 1777842603 | 24.44° C | 17% | 1016.4 hPa | 0 mm | - | 844 W/m² | - |
| 1777842003 | 24.44° C | 20% | 1016.6 hPa | 0 mm | - | 860 W/m² | - |
| 1777841403 | 24.44° C | 18% | 1016.7 hPa | 0 mm | - | 861 W/m² | - |
| 1777840803 | 23.89° C | 20% | 1016.8 hPa | 0 mm | - | 863 W/m² | - |
* Rain latest hour (hover to see other rain measurements)
** Current wind speed in m/s (hover to see current wind gust speed)